H1 CPF 2 NER 2020 12 6 9 341 01 glonass134 H2 1407501 9134 40315 2020 12 6 0 0 0 2020 12 9 23 45 0 900 1 1 0 0 0 1 H9 10 0 59189 0.00000 0 -13866773.472 8380029.878 -19707001.608 10 0 59189 900.00000 0 -16186357.135 8294155.439 -17898619.912 10 0 59189 1800.00000 0 -18261694.746 8371686.999 -15742984.866 10 0 59189 2700.00000 0 -20042513.041 8576132.235 -13282085.799 10 0 59189 3600.00000 0 -21488333.408 8863113.757 -10563773.617 10 0 59189 4500.00000 0 -22569968.639 9182427.008 -7640827.895 10 0 59189 5400.00000 0 -23270561.752 9480350.514 -4569933.142 10 0 59189 6300.00000 0 -23586125.524 9702110.916 -1410583.890 10 0 59189 7200.00000 0 -23525562.283 9794399.001 1776060.378 10 0 59189 8100.00000 0 -23110164.844 9707831.211 4928348.930 10 0 59189 9000.00000 0 -22372620.803 9399253.590 7985320.186 10 0 59189 9900.00000 0 -21355562.601 8833791.896 10887866.876 10 0 59189 10800.00000 0 -20109724.284 7986562.194 13579864.593 10 0 59189 11700.00000 0 -18691781.760 6843970.256 16009243.168 10 0 59189 12600.00000 0 -17161966.102 5404545.032 18128981.354 10 0 59189 13500.00000 0 -15581548.563 3679270.442 19898006.857 10 0 59189 14400.00000 0 -14010301.014 1691400.172 21281985.375 10 0 59189 15300.00000 0 -12504036.555 -524238.747 22253984.166 10 0 59189 16200.00000 0 -11112331.728 -2922427.025 22794997.774 10 0 59189 17100.00000 0 -9876524.495 -5449172.530 22894325.771 10 0 59189 18000.00000 0 -8828071.050 -8043703.482 22549794.682 10 0 59189 18900.00000 0 -7987330.090 -10640755.406 21767818.883 10 0 59189 19800.00000 0 -7362825.732 -13173059.291 20563297.834 10 0 59189 20700.00000 0 -6951020.848 -15573929.347 18959349.940 10 0 59189 21600.00000 0 -6736611.364 -17779844.045 16986886.230 10 0 59189 22500.00000 0 -6693330.444 -19732913.462 14684030.120 10 0 59189 23400.00000 0 -6785229.868 -21383129.797 12095392.764 10 0 59189 24300.00000 0 -6968385.491 -22690306.289 9271216.572 10 0 59189 25200.00000 0 -7192955.169 -23625622.085 6266402.547 10 0 59189 26100.00000 0 -7405502.030 -24172706.785 3139440.029 10 0 59189 27000.00000 0 -7551483.843 -24328217.569 -48740.068 10 0 59189 27900.00000 0 -7577801.562 -24101883.377 -3235965.370 10 0 59189 28800.00000 0 -7435297.050 -23516013.538 -6360050.559 10 0 59189 29700.00000 0 -7081091.709 -22604491.278 -9360028.627 10 0 59189 30600.00000 0 -6480664.384 -21411294.963 -12177358.868 10 0 59189 31500.00000 0 -5609578.157 -19988610.462 -14757085.989 10 0 59189 32400.00000 0 -4454780.767 -18394615.628 -17048926.053 10 0 59189 33300.00000 0 -3015422.020 -16691032.013 -19008256.654 10 0 59189 34200.00000 0 -1303152.560 -14940548.661 -20596991.111 10 0 59189 35100.00000 0 658109.193 -13204227.911 -21784319.303 10 0 59189 36000.00000 0 2832932.279 -11539003.277 -22547300.956 10 0 59189 36900.00000 0 5175618.590 -9995375.018 -22871300.480 10 0 59189 37800.00000 0 7631885.733 -8615399.796 -22750256.027 10 0 59189 38700.00000 0 10140916.446 -7431057.730 -22186778.883 10 0 59189 39600.00000 0 12637688.387 -6463063.681 -21192082.775 10 0 59189 40500.00000 0 15055486.884 -5720170.375 -19785745.978 10 0 59189 41400.00000 0 17328495.995 -5198989.983 -17995312.233 10 0 59189 42300.00000 0 19394360.335 -4884338.966 -15855739.517 10 0 59189 43200.00000 0 21196611.891 -4750089.027 -13408708.332 10 0 59189 44100.00000 0 22686862.026 -4760486.018 -10701803.674 10 0 59189 45000.00000 0 23826668.881 -4871879.385 -7787587.049 10 0 59189 45900.00000 0 24589004.180 -5034787.922 -4722576.710 10 0 59189 46800.00000 0 24959260.169 -5196213.952 -1566155.779 10 0 59189 47700.00000 0 24935756.453 -5302108.112 1620570.857 10 0 59189 48600.00000 0 24529727.263 -5299881.028 4775949.321 10 0 59189 49500.00000 0 23764790.940 -5140856.486 7838957.309 10 0 59189 50400.00000 0 22675924.658 -4782563.440 10750370.480 10 0 59189 51300.00000 0 21307987.567 -4190770.995 13453893.276 10 0 59189 52200.00000 0 19713853.821 -3341181.186 15897233.586 10 0 59189 53100.00000 0 17952232.786 -2220708.531 18033101.623 10 0 59189 54000.00000 0 16085266.286 -828292.188 19820115.017 10 0 59189 54900.00000 0 14176001.699 824794.374 21223593.662 10 0 59189 55800.00000 0 12285844.790 2715150.771 22216229.756 10 0 59189 56700.00000 0 10472096.919 4807967.750 22778620.515 10 0 59189 57600.00000 0 8785677.998 7058228.606 22899653.358 10 0 59189 58500.00000 0 7269129.159 9412346.754 22576735.567 10 0 59189 59400.00000 0 5954977.937 11810174.179 21815863.102 10 0 59189 60300.00000 0 4864534.087 14187299.922 20631525.835 10 0 59189 61200.00000 0 4007166.818 16477545.067 19046449.299 10 0 59189 62100.00000 0 3380094.417 18615551.987 17091176.060 10 0 59189 63000.00000 0 2968695.996 20539360.779 14803492.765 10 0 59189 63900.00000 0 2747333.327 22192865.432 12227712.282 10 0 59189 64800.00000 0 2680648.944 23528046.476 9413823.306 10 0 59189 65700.00000 0 2725286.260 24506885.392 6416522.960 10 0 59189 66600.00000 0 2831959.045 25102878.878 3294150.851 10 0 59189 67500.00000 0 2947782.034 25302087.571 107545.529 10 0 59189 68400.00000 0 3018762.744 25103673.517 -3081153.533 10 0 59189 69300.00000 0 2992347.070 24519902.440 -6209733.629 10 0 59189 70200.00000 0 2819908.523 23575609.915 -9217140.480 10 0 59189 71100.00000 0 2459073.119 22307153.812 -12044687.918 10 0 59189 72000.00000 0 1875778.920 20760897.524 -14637219.936 10 0 59189 72900.00000 0 1045980.759 18991288.996 -16944200.729 10 0 59189 73800.00000 0 -43073.898 17058617.748 -18920710.055 10 0 59189 74700.00000 0 -1392053.195 15026545.925 -20528323.530 10 0 59189 75600.00000 0 -2989267.479 12959518.595 -21735860.375 10 0 59189 76500.00000 0 -4810926.114 10920163.210 -22519984.213 10 0 59189 77400.00000 0 -6821913.512 8966788.030 -22865645.874 10 0 59189 78300.00000 0 -8977051.396 7151084.312 -22766360.678 10 0 59189 79200.00000 0 -11222793.785 5516127.772 -22224316.163 10 0 59189 80100.00000 0 -13499283.122 4094761.566 -21250309.656 10 0 59189 81000.00000 0 -15742681.135 2908426.379 -19863518.434 10 0 59189 81900.00000 0 -17887676.924 1966484.009 -18091108.351 10 0 59189 82800.00000 0 -19870067.677 1266059.976 -15967689.794 10 0 59189 83700.00000 0 -21629304.895 792408.805 -13534632.565 10 0 59189 84600.00000 0 -23110900.829 519783.853 -10839253.660 10 0 59189 85500.00000 0 -24268595.909 412772.750 -7933894.289 10 0 59190 0.00000 0 -25066198.255 428040.319 -4874904.226 10 0 59190 900.00000 0 -25479019.860 516404.119 -1721552.695 10 0 59190 1800.00000 0 -25494851.832 625154.797 1465112.332 10 0 59190 2700.00000 0 -25114438.030 700522.559 4623436.253 10 0 59190 3600.00000 0 -24351430.147 690186.778 7692338.485 10 0 59190 4500.00000 0 -23231825.720 545723.002 10612480.081 10 0 59190 5400.00000 0 -21792913.489 224885.225 13327396.787 10 0 59190 6300.00000 0 -20081769.730 -306372.140 15784576.925 10 0 59190 7200.00000 0 -18153367.732 -1072217.207 17936464.425 10 0 59190 8100.00000 0 -16068378.078 -2085678.976 19741368.887 10 0 59190 9000.00000 0 -13890749.899 -3347854.686 21164266.196 10 0 59190 9900.00000 0 -11685172.208 -4847620.529 22177474.944 10 0 59190 10800.00000 0 -9514519.218 -6561859.688 22761196.145 10 0 59190 11700.00000 0 -7437384.343 -8456200.532 22903905.821 10 0 59190 12600.00000 0 -5505804.244 -10486236.833 22602592.418 10 0 59190 13500.00000 0 -3763266.710 -12599181.995 21862833.569 10 0 59190 14400.00000 0 -2243084.886 -14735891.159 20698709.316 10 0 59190 15300.00000 0 -967205.728 -16833169.268 19132551.796 10 0 59190 16200.00000 0 54497.147 -18826270.777 17194534.273 10 0 59190 17100.00000 0 824415.973 -20651487.925 14922105.520 10 0 59190 18000.00000 0 1356877.719 -22248719.797 12359278.726 10 0 59190 18900.00000 0 1677302.514 -23563914.300 9555787.197 10 0 59190 19800.00000 0 1820886.560 -24551279.812 6566122.252 10 0 59190 20700.00000 0 1830864.894 -25175171.925 3448471.618 10 0 59190 21600.00000 0 1756427.907 -25411574.124 263579.141 10 0 59190 22500.00000 0 1650380.785 -25249108.230 -2926451.126 10 0 59190 23400.00000 0 1566646.607 -24689530.219 -6059381.739 10 0 59190 24300.00000 0 1557720.970 -23747689.253 -9074073.927 10 0 59190 25200.00000 0 1672188.412 -22450950.841 -11911698.924 10 0 59190 26100.00000 0 1952408.337 -20838108.313 -14516902.903 10 0 59190 27000.00000 0 2432470.821 -18957828.956 -16838901.030 10 0 59190 27900.00000 0 3136510.847 -16866701.164 -18832477.919 10 0 59190 28800.00000 0 4077453.770 -14626966.062 -20458873.934 10 0 59190 29700.00000 0 5256246.024 -12304030.215 -21686539.739 10 0 59190 30600.00000 0 6661603.953 -9963864.973 -22491744.557 10 0 59190 31500.00000 0 8270291.283 -7670402.290 -22859026.875 10 0 59190 32400.00000 0 10047913.127 -5483036.259 -22781479.964 10 0 59190 33300.00000 0 11950192.553 -3454334.419 -22260867.948 10 0 59190 34200.00000 0 13924675.370 -1628053.417 -21307571.676 10 0 59190 35100.00000 0 15912791.055 -37540.114 -19940366.965 10 0 59190 36000.00000 0 17852183.124 1295417.455 -18186040.940 10 0 59190 36900.00000 0 19679211.225 2361243.970 -16078855.205 10 0 59190 37800.00000 0 21331520.574 3162711.233 -13659867.280 10 0 59190 38700.00000 0 22750571.867 3714550.499 -10976124.231 10 0 59190 39600.00000 0 23884026.808 4042561.739 -8079744.666 10 0 59190 40500.00000 0 24687890.693 4182259.667 -5026907.106 10 0 59190 41400.00000 0 25128323.881 4177115.327 -1876764.245 10 0 59190 42300.00000 0 25183047.741 4076468.464 1309696.056 10 0 59190 43200.00000 0 24842287.678 3933199.272 4470821.618 10 0 59190 44100.00000 0 24109214.881 3801257.685 7545476.705 10 0 59190 45000.00000 0 22999869.111 3733153.949 10474210.754 10 0 59190 45900.00000 0 21542566.063 3777515.551 13200393.618 10 0 59190 46800.00000 0 19776813.867 3976812.656 15671296.618 10 0 59190 47700.00000 0 17751783.243 4365347.091 17839099.688 10 0 59190 48600.00000 0 15524393.930 4967589.114 19661806.414 10 0 59190 49500.00000 0 13157095.449 5796931.927 21104050.374 10 0 59190 50400.00000 0 10715432.818 6854916.842 22137777.982 10 0 59190 51300.00000 0 8265496.456 8130962.905 22742795.138 10 0 59190 52200.00000 0 5871360.384 9602614.186 22907167.222 10 0 59190 53100.00000 0 3592613.612 11236296.722 22627464.217 10 0 59190 54000.00000 0 1482085.999 12988556.194 21908845.386 10 0 59190 54900.00000 0 -416137.664 14807727.388 20764980.490 10 0 59190 55800.00000 0 -2068332.948 16635968.235 19217807.370 10 0 59190 56700.00000 0 -3452313.004 18411575.639 17297128.702 10 0 59190 57600.00000 0 -4558118.082 20071487.811 15040053.723 10 0 59190 58500.00000 0 -5388187.702 21553869.119 12490293.939 10 0 59190 59400.00000 0 -5957007.556 22800669.198 9697325.004 10 0 59190 60300.00000 0 -6290245.388 23760048.137 6715429.935 10 0 59190 61200.00000 0 -6423411.882 24388564.333 3602641.860 10 0 59190 62100.00000 0 -6400103.369 24653031.182 419607.086 10 0 59190 63000.00000 0 -6269901.307 24531962.131 -2771608.687 10 0 59190 63900.00000 0 -6086018.837 24016541.200 -5908746.263 10 0 59190 64800.00000 0 -5902795.896 23111076.353 -8930585.317 10 0 59190 65700.00000 0 -5773151.253 21832915.156 -11778157.309 10 0 59190 66600.00000 0 -5746101.791 20211825.594 -14395913.226 10 0 59190 67500.00000 0 -5864456.492 18288868.067 -16732821.604 10 0 59190 68400.00000 0 -6162784.829 16114806.496 -18743374.023 10 0 59190 69300.00000 0 -6665747.198 13748126.254 -20388477.394 10 0 59190 70200.00000 0 -7386859.017 11252743.323 -21636215.313 10 0 59190 71100.00000 0 -8327741.279 8695501.765 -22462463.736 10 0 59190 72000.00000 0 -9477889.086 6143565.326 -22851349.594 10 0 59190 72900.00000 0 -10814967.483 3661812.662 -22795544.495 10 0 59190 73800.00000 0 -12305621.357 1310344.896 -22296389.112 10 0 59190 74700.00000 0 -13906764.433 -857791.159 -21363847.334 10 0 59190 75600.00000 0 -15567292.318 -2798570.591 -20016292.583 10 0 59190 76500.00000 0 -17230146.992 -4478568.810 -18280131.898 10 0 59190 77400.00000 0 -18834645.641 -5876087.408 -16189276.352 10 0 59190 78300.00000 0 -20318976.104 -6981783.419 -13784469.136 10 0 59190 79200.00000 0 -21622754.617 -7798778.713 -11112485.101 10 0 59190 80100.00000 0 -22689539.226 -8342247.893 -8225217.814 10 0 59190 81000.00000 0 -23469194.528 -8638504.695 -5178672.089 10 0 59190 81900.00000 0 -23920009.759 -8723627.511 -2031881.394 10 0 59190 82800.00000 0 -24010482.736 -8641683.450 1154229.059 10 0 59190 83700.00000 0 -23720696.124 -8442626.743 4318012.112 10 0 59190 84600.00000 0 -23043229.438 -8179960.385 7398279.473 10 0 59190 85500.00000 0 -21983569.335 -7908259.385 10335471.535 10 0 59191 0.00000 0 -20560001.401 -7680659.368 13072794.708 10 0 59191 900.00000 0 -18802987.433 -7546415.790 15557305.793 10 0 59191 1800.00000 0 -16754054.444 -7548634.702 17740922.862 10 0 59191 2700.00000 0 -14464239.122 -7722271.458 19581345.392 10 0 59191 3600.00000 0 -11992152.120 -8092479.321 21042866.254 10 0 59191 4500.00000 0 -9401740.047 -8673378.638 22097060.898 10 0 59191 5400.00000 0 -6759836.329 -9467298.396 22723340.949 10 0 59191 6300.00000 0 -4133600.378 -10464523.400 22909361.585 10 0 59191 7200.00000 0 -1587949.573 -11643559.510 22651274.418 10 0 59191 8100.00000 0 816911.007 -12971908.122 21953820.103 10 0 59191 9000.00000 0 3027759.678 -14407320.040 20830257.575 10 0 59191 9900.00000 0 5000336.217 -15899478.752 19302129.583 10 0 59191 10800.00000 0 6700944.762 -17392044.943 17398867.151 10 0 59191 11700.00000 0 8107614.392 -18824978.402 15157238.649 10 0 59191 12600.00000 0 9210768.212 -20137041.020 12620652.322 10 0 59191 13500.00000 0 10013372.239 -21268376.252 9838324.302 10 0 59191 14400.00000 0 10530557.082 -22163056.142 6864327.169 10 0 59191 15300.00000 0 10788727.840 -22771487.557 3756537.113 10 0 59191 16200.00000 0 10824199.643 -23052574.474 575500.338 10 0 59191 17100.00000 0 10681416.928 -22975542.963 -2616758.524 10 0 59191 18000.00000 0 10410832.743 -22521349.701 -5757961.289 10 0 59191 18900.00000 0 10066539.393 -21683612.348 -8786808.885 10 0 59191 19800.00000 0 9703752.762 -20469020.783 -11644195.798 10 0 59191 20700.00000 0 9376259.074 -18897210.607 -14274380.541 10 0 59191 21600.00000 0 9133934.538 -17000103.524 -16626087.598 10 0 59191 22500.00000 0 9020445.010 -14820742.360 -18653517.877 10 0 59191 23400.00000 0 9071224.698 -12411670.178 -20317246.921 10 0 59191 24300.00000 0 9311820.603 -9832922.370 -21584992.968 10 0 59191 25200.00000 0 9756673.231 -7149716.826 -22432239.998 10 0 59191 26100.00000 0 10408385.032 -4429939.820 -22842704.224 10 0 59191 27000.00000 0 11257506.892 -1741533.319 -22808635.966 10 0 59191 27900.00000 0 12282850.775 850107.128 -22330952.386 10 0 59191 28800.00000 0 13452314.174 3284615.715 -21419199.939 10 0 59191 29700.00000 0 14724180.492 5508918.493 -20091348.820 10 0 59191 30600.00000 0 16048839.584 7479181.725 -18373424.815 10 0 59191 31500.00000 0 17370855.265 9162367.420 -16298986.998 10 0 59191 32400.00000 0 18631292.422 10537333.895 -13908462.471 10 0 59191 33300.00000 0 19770205.834 11595438.344 -11248351.819 10 0 59191 34200.00000 0 20729186.450 12340619.166 -8370321.268 10 0 59191 35100.00000 0 21453858.801 12788957.491 -5330199.377 10 0 59191 36000.00000 0 21896225.602 12967738.797 -2186897.658 10 0 59191 36900.00000 0 22016762.173 12914055.983 998724.164 10 0 59191 37800.00000 0 21786173.877 12673014.045 4165026.825 10 0 59191 38700.00000 0 21186743.856 12295612.653 7250772.286 10 0 59191 39600.00000 0 20213215.266 11836395.851 10196294.590 10 0 59191 40500.00000 0 18873171.432 11350967.493 12944639.311 10 0 59191 41400.00000 0 17186897.847 10893476.202 15442650.804 10 0 59191 42300.00000 0 15186731.139 10514174.722 17641987.424 10 0 59191 43200.00000 0 12915920.940 10257155.325 19500046.362 10 0 59191 44100.00000 0 10427050.392 10158355.678 20980781.330 10 0 59191 45000.00000 0 7780078.958 10243918.467 22055398.101 10 0 59191 45900.00000 0 5040086.610 10528973.750 22702915.017 10 0 59191 46800.00000 0 2274810.624 11016895.742 22910577.732 10 0 59191 47700.00000 0 -447924.917 11699066.470 22674119.784 10 0 59191 48600.00000 0 -3062782.271 12555157.944 21997863.123 10 0 59191 49500.00000 0 -5509380.542 13553923.189 20894655.332 10 0 59191 50400.00000 0 -7734561.849 14654465.256 19385643.092 10 0 59191 51300.00000 0 -9694359.372 15807933.231 17499884.388 10 0 59191 52200.00000 0 -11355585.204 16959575.972 15273804.945 10 0 59191 53100.00000 0 -12696971.173 18051068.695 12750507.645 10 0 59191 54000.00000 0 -13709814.220 19023015.275 9978946.768 10 0 59191 54900.00000 0 -14398098.363 19817520.796 7012981.936 10 0 59191 55800.00000 0 -14778087.431 20380725.113 3910329.756 10 0 59191 56700.00000 0 -14877405.294 20665188.905 731433.595 10 0 59191 57600.00000 0 -14733642.486 20632029.482 -2461725.748 10 0 59191 58500.00000 0 -14392548.721 20252713.774 -5606853.923 10 0 59191 59400.00000 0 -13905888.964 19510430.427 -8642575.894 10 0 59191 60300.00000 0 -13329055.459 18400980.889 -11509651.851 10 0 59191 61200.00000 0 -12718538.806 16933150.137 -14152150.387 10 0 59191 62100.00000 0 -12129367.378 15128540.253 -16518554.266 10 0 59191 63000.00000 0 -11612625.474 13020873.248 -18562775.801 10 0 59191 63900.00000 0 -11213157.000 10654792.520 -20245060.921 10 0 59191 64800.00000 0 -10967553.028 8084213.690 -21532763.921 10 0 59191 65700.00000 0 -10902508.920 5370294.660 -22400977.869 10 0 59191 66600.00000 0 -11033620.428 2579110.745 -22833008.919 10 0 59191 67500.00000 0 -11364668.968 -220867.321 -22820686.374 10 0 59191 68400.00000 0 -11887425.167 -2961386.902 -22364503.722 10 0 59191 69300.00000 0 -12581977.558 -5577009.588 -21473589.398 10 0 59191 70200.00000 0 -13417571.049 -8007582.464 -20165509.350 10 0 59191 71100.00000 0 -14353918.358 -10200482.908 -18465906.690 10 0 59191 72000.00000 0 -15342927.920 -12112545.185 -16407986.710 10 0 59191 72900.00000 0 -16330774.547 -13711590.904 -14031858.356 10 0 59191 73800.00000 0 -17260225.149 -14977502.225 -11383745.660 10 0 59191 74700.00000 0 -18073121.491 -15902795.748 -8515085.074 10 0 59191 75600.00000 0 -18712915.817 -16492675.999 -5481526.399 10 0 59191 76500.00000 0 -19127153.251 -16764568.854 -2341856.649 10 0 59191 77400.00000 0 -19269797.467 -16747156.659 843132.487 10 0 59191 78300.00000 0 -19103302.788 -16478957.257 4011812.189 10 0 59191 79200.00000 0 -18600346.605 -16006507.682 7102897.221 10 0 59191 80100.00000 0 -17745150.105 -15382229.334 10056617.786 10 0 59191 81000.00000 0 -16534332.339 -14662064.243 12815861.024 10 0 59191 81900.00000 0 -14977261.789 -13902981.194 15327261.290 10 0 59191 82800.00000 0 -13095890.159 -13160455.580 17542219.331 10 0 59191 83700.00000 0 -10924074.220 -12486027.758 19417831.945 10 0 59191 84600.00000 0 -8506412.266 -11925041.355 20917715.282 10 0 59191 85500.00000 0 -5896641.592 -11514655.593 22012706.669 10 0 59192 0.00000 0 -3155661.221 -11282214.505 22681432.009 10 0 59192 900.00000 0 -349259.185 -11244041.786 22910727.895 10 0 59192 1800.00000 0 2454363.244 -11404711.421 22695909.891 10 0 59192 2700.00000 0 5187170.442 -11756827.545 22040880.975 10 0 59192 3600.00000 0 7783869.184 -12281322.504 20958076.815 10 0 59192 4500.00000 0 10184377.338 -12948263.830 19468247.181 10 0 59192 5400.00000 0 12336082.814 -13718137.687 17600075.883 10 0 59192 6300.00000 0 14195798.832 -14543556.879 15389644.604 10 0 59192 7200.00000 0 15731333.511 -15371323.053 12879749.180 10 0 59192 8100.00000 0 16922607.409 -16144757.144 10119080.017 10 0 59192 9000.00000 0 17762271.397 -16806200.129 7161281.469 10 0 59192 9900.00000 0 18255797.783 -17299577.941 4063907.950 10 0 59192 10800.00000 0 18421040.185 -17572920.887 887297.152 10 0 59192 11700.00000 0 18287280.457 -17580729.280 -2306616.967 10 0 59192 12600.00000 0 17893803.042 -17286082.928 -5455526.943 10 0 59192 13500.00000 0 17288057.817 -16662402.835 -8497984.819 10 0 59192 14400.00000 0 16523490.428 -15694788.230 -11374619.427 10 0 59192 15300.00000 0 15657133.622 -14380870.354 -14029312.190 10 0 59192 16200.00000 0 14747063.498 -12731145.343 -16410306.670 10 0 59192 17100.00000 0 13849830.238 -10768771.082 -18471228.805 10 0 59192 18000.00000 0 13017973.762 -8528836.162 -20171996.799 10 0 59192 18900.00000 0 12297730.618 -6057131.705 -21479602.500 10 0 59192 19800.00000 0 11727029.728 -3408477.942 -22368749.119 10 0 59192 20700.00000 0 11333861.675 -644676.376 -22822333.365 10 0 59192 21600.00000 0 11135089.771 2167826.252 -22831763.657 10 0 59192 22500.00000 0 11135751.872 4960464.228 -22397109.497 10 0 59192 23400.00000 0 11328880.793 7665163.781 -21527080.569 10 0 59192 24300.00000 0 11695849.044 10216930.268 -20238837.461 10 0 59192 25200.00000 0 12207221.462 12556304.753 -18557639.156 10 0 59192 26100.00000 0 12824078.036 14631589.049 -16516335.412 10 0 59192 27000.00000 0 13499749.702 16400748.466 -14154714.976 10 0 59192 27900.00000 0 14181892.905 17832915.296 -11518723.045 10 0 59192 28800.00000 0 14814814.846 18909432.826 -8659563.780 10 0 59192 29700.00000 0 15341951.306 19624398.952 -5632705.516 10 0 59192 30600.00000 0 15708392.893 19984689.263 -2496807.913 10 0 59192 31500.00000 0 15863353.912 20009460.872 687408.302 10 0 59192 32400.00000 0 15762480.696 19729159.671 3858327.674 10 0 59192 33300.00000 0 15369903.123 19184074.004 6954620.596 10 0 59192 34200.00000 0 14659943.845 18422496.140 9916416.103 10 0 59192 35100.00000 0 13618413.914 17498568.861 12686445.354 10 0 59192 36000.00000 0 12243440.537 16469907.126 15211134.902 10 0 59192 36900.00000 0 10545791.899 15395093.776 17441629.814 10 0 59192 37800.00000 0 8548684.486 14331153.192 19334728.147 10 0 59192 38700.00000 0 6287079.335 13331107.583 20853709.843 10 0 59192 39600.00000 0 3806494.568 12441717.197 21969044.848 10 0 59192 40500.00000 0 1161381.153 11701498.194 22658967.367 10 0 59192 41400.00000 0 -1586873.341 11139100.720 22909905.312 10 0 59192 42300.00000 0 -4372232.684 10772115.110 22716756.261 10 0 59192 43200.00000 0 -7126499.267 10606356.775 22083003.831 10 0 59192 44100.00000 0 -9781899.699 10635660.748 21020670.918 10 0 59192 45000.00000 0 -12273662.916 10842195.952 19550109.070 10 0 59192 45900.00000 0 -14542484.757 11197287.641 17699626.199 10 0 59192 46800.00000 0 -16536776.845 11662715.095 15504957.828 10 0 59192 47700.00000 0 -18214605.705 12192431.439 13008590.316 10 0 59192 48600.00000 0 -19545240.479 12734634.126 10258947.571 10 0 59192 49500.00000 0 -20510243.417 13234099.207 7309455.909 10 0 59192 50400.00000 0 -21104056.171 13634680.484 4217504.713 10 0 59192 51300.00000 0 -21334056.263 13881866.973 1043323.192 10 0 59192 52200.00000 0 -21220080.529 13925288.712 -2151204.302 10 0 59192 53100.00000 0 -20793435.401 13721062.756 -5303759.903 10 0 59192 54000.00000 0 -20095436.247 13233877.661 -8352825.338 10 0 59192 54900.00000 0 -19175538.242 12438725.646 -11238900.584 10 0 59192 55800.00000 0 -18089139.227 11322206.892 -13905682.233 10 0 59192 56700.00000 0 -16895149.173 9883348.880 -16301176.774 10 0 59192 57600.00000 0 -15653430.819 8133904.737 -18378725.612 10 0 59192 58500.00000 0 -14422221.395 6098117.136 -20097920.733 10 0 59192 59400.00000 0 -13255645.690 3811957.360 -21425392.668 10 0 59192 60300.00000 0 -12201426.275 1321871.543 -22335455.486 10 0 59192 61200.00000 0 -11298887.700 -1316912.861 -22810596.737 10 0 59192 62100.00000 0 -10577338.283 -4042448.948 -22841803.823 10 0 59192 63000.00000 0 -10054896.536 -6788413.972 -22428721.707 10 0 59192 63900.00000 0 -9737809.990 -9486636.470 -21579640.351 10 0 59192 64800.00000 0 -9620293.022 -12069701.654 -20311313.637 10 0 59192 65700.00000 0 -9684888.262 -14473527.052 -18648614.737 10 0 59192 66600.00000 0 -9903334.136 -16639802.020 -16624035.902 10 0 59192 67500.00000 0 -10237899.986 -18518191.022 -14277043.496 10 0 59192 68400.00000 0 -10643130.814 -20068210.766 -11653301.548 10 0 59192 69300.00000 0 -11067926.944 -21260705.080 -8803779.531 10 0 59192 70200.00000 0 -11457870.214 -22078858.349 -5783761.896 10 0 59192 71100.00000 0 -11757698.412 -22518707.613 -2651778.570 10 0 59192 72000.00000 0 -11913823.884 -22589134.064 531523.030 10 0 59192 72900.00000 0 -11876790.711 -22311336.266 3704543.118 10 0 59192 73800.00000 0 -11603567.658 -21717808.589 6805909.989 10 0 59192 74700.00000 0 -11059581.133 -20850868.599 9775653.748 10 0 59192 75600.00000 0 -10220403.246 -19760795.438 12556351.760 10 0 59192 76500.00000 0 -9073024.319 -18503657.002 15094224.877 10 0 59192 77400.00000 0 -7616656.285 -17138916.202 17340164.452 10 0 59192 78300.00000 0 -5863032.596 -15726915.484 19250671.563 10 0 59192 79200.00000 0 -3836190.741 -14326343.545 20788691.445 10 0 59192 80100.00000 0 -1571744.564 -12991788.902 21924327.847 10 0 59192 81000.00000 0 884325.665 -11771481.385 22635424.118 10 0 59192 81900.00000 0 3477317.818 -10705315.041 22907999.976 10 0 59192 82800.00000 0 6145821.549 -9823234.626 22736535.141 10 0 59192 83700.00000 0 8824020.107 -9144053.146 22124093.641 10 0 59192 84600.00000 0 11444187.265 -8674750.376 21082285.060 10 0 59192 85500.00000 0 13939277.503 -8410282.697 19631061.892 99